CAPE
0 0 0 0 0 0 0 0 0 0 0 0 0 0 0 0 0 0 0 0 0 0 0 0 0 0 0 0 0 0 0 0 0 0 0 0 0 0 0 0 0 0 0
0 0 0 0 0 0 0 0 0 0 0 0 0 0 0 0 0 0 0 0 0 0 0 0 0 0 0 0 0 0 0 0 0 0 0 0 0 0 0 0 0 0 0
0 0 0 0 0 0 0 0 0 0 0 0 0 0 0 0 0 0 0 0 0 0 0 0 0 0 0 0 0 0 0 0 0 0 0 0 0 0 0 0 0 0 0
0 0 0 0 0 0 0 0 0 0 0 0 0 0 0 0 0 0 0 0 0 0 0 0 0 0 0 0 0 0 0 1 0 0 0 0 0 0 0 0 0 0 0
0 0 0 0 0 0 0 0 0 0 0 0 0 0 0 0 0 0 0 0 0 0 0 0 0 0 0 0 0 0 1 0 1 0 0 0 0 0 0 0 0 0 0
0 0 0 0 0 0 0 0 0 0 0 0 0 0 0 0 0 0 0 0 0 0 0 0 0 0 0 0 0 0 0 1 0 1 0 1 1 0 0 0 0 0 0
0 0 0 0 0 0 0 0 0 0 0 0 0 0 0 0 0 0 0 0 0 0 0 0 0 0 0 0 0 0 0 0 0 0 0 0 1 1 2 1 1 0 0
0 0 0 0 0 0 0 0 0 0 0 0 0 0 0 0 0 0 0 0 0 0 0 0 0 0 0 0 0 0 0 0 0 0 0 0 0 0 3 2 1 1 0
0 0 0 0 0 0 0 0 0 0 0 0 0 0 0 0 0 0 0 0 0 0 0 0 0 0 0 0 0 0 0 0 0 0 0 0 0 0 0 3 1 4 0
0 0 0 0 0 0 0 0 0 0 0 0 0 0 0 0 0 0 0 0 0 0 0 0 0 0 0 0 0 0 0 0 0 0 0 0 0 0 0 0 0 5 1
0 0 0 0 0 0 0 0 0 0 0 0 0 0 0 0 0 0 0 0 0 0 0 0 0 0 0 0 0 0 0 0 0 0 0 0 0 0 0 0 0 0 1
0 0 0 0 0 0 0 0 0 0 0 0 0 0 0 0 0 0 0 0 0 0 0 0 0 0 0 0 0 0 0 0 0 0 0 0 0 0 0 0 0 0 0
0 0 0 0 0 0 0 0 0 0 0 0 0 0 0 0 0 0 0 0 0 0 0 0 0 0 0 0 0 0 0 0 0 0 0 0 0 0 0 0 0 0 0
0 0 0 0 0 0 0 0 0 0 0 0 0 0 0 0 0 0 0 0 0 0 0 0 0 0 0 0 0 0 0 0 0 0 0 0 0 0 0 0 0 0 0
0 0 0 0 0 0 0 0 0 0 0 0 0 0 0 0 0 0 0 0 0 0 0 0 0 0 0 0 0 0 0 0 0 0 0 0 0 0 0 0 0 0 0
0 0 0 0 0 0 0 0 0 0 0 0 0 0 0 0 0 0 0 0 0 0 0 0 0 0 0 0 0 0 0 0 0 0 0 0 0 0 0 0 0 0 0
0 0 0 0 0 0 0 0 0 0 0 0 0 0 0 0 0 0 0 0 0 0 0 0 0 0 0 0 0 0 0 0 0 0 0 0 0 0 0 0 0 0 0
0 0 0 0 0 0 0 0 0 0 0 0 0 0 0 0 0 0 0 0 0 0 0 0 0 0 0 0 0 0 0 0 0 0 0 0 0 0 0 0 0 0 0
0 0 0 0 0 0 0 0 0 0 0 0 0 0 0 0 0 0 0 0 0 0 0 0 0 0 0 0 0 0 0 0 0 0 0 0 0 0 0 0 0 0 0
0 0 0 0 0 0 0 0 0 0 0 0 0 0 0 0 0 0 0 0 0 0 0 0 0 0 0 0 0 0 0 0 0 0 0 0 0 0 0 0 0 0 0
0 0 0 0 0 0 0 0 0 0 0 0 0 0 0 0 0 0 0 0 0 0 0 0 0 0 0 0 0 0 0 0 0 0 0 0 0 0 0 0 0 0 0
0 0 0 0 0 0 0 0 0 0 0 0 0 0 0 0 0 0 0 0 0 0 0 0 0 0 0 0 0 0 0 0 0 0 0 0 0 0 0 0 0 0 0
0 0 0 0 0 0 0 0 0 0 0 0 0 0 0 0 0 0 0 0 0 0 0 0 0 0 0 0 0 0 0 0 0 0 0 0 0 0 0 0 0 0 0
0 0 0 0 0 0 0 0 0 0 0 0 0 0 0 0 0 0 0 0 0 0 0 0 0 0 0 0 0 0 0 0 0 0 0 0 0 1 1 1 0 0 0
0 0 0 0 0 0 0 0 0 0 0 0 0 0 0 0 0 0 0 0 0 0 0 0 0 0 0 0 0 0 0 0 0 1 0 0 0 0 0 0 0 0 0
0 0 0 0 0 0 0 0 0 0 0 0 0 0 0 0 0 0 0 0 0 0 0 0 0 0 0 0 0 0 0 0 1 0 0 0 0 0 0 0 1 0 0
CIN
0 0 0 0 0 0 0 0 0 0 0 0 0 0 0 0 0 0 0 0 0 0 0 0 0 0 0 0 0 0 0 0 0 0 0 0 0 0 0 0 0 0 0
0 0 0 0 0 0 0 0 0 0 0 0 0 0 0 0 0 0 0 0 0 0 0 0 0 0 0 0 0 -1 -1 -1 0 0 0 0 0 0 0 0 0 0 0
0 0 0 0 0 0 0 0 0 0 0 0 0 0 0 0 0 0 0 0 0 0 0 0 0 0 0 0 -1 -1 -2 -1 0 0 0 0 0 0 0 0 0 0 0
0 0 0 0 0 0 0 0 0 0 0 0 0 0 0 0 0 0 0 0 0 0 0 0 0 0 0 0 0 0 -2 -3 0 0 0 -4 -1 0 0 0 0 0 0
0 0 0 0 0 0 0 0 0 0 0 0 0 0 0 0 0 0 0 0 0 0 0 0 0 0 0 0 0 0 -1 -1 -2 -2 0 0 0 0 0 0 0 0 0
0 0 0 0 0 0 0 0 0 0 0 0 0 0 0 0 0 0 0 0 0 0 0 0 0 0 0 0 0 0 0 -1 -2 -2 -1 -3 -1 -1 -1 0 0 0 0
0 0 0 0 0 0 0 0 0 0 0 0 0 0 0 0 0 0 0 0 0 0 0 0 0 0 0 0 0 0 0 0 0 0 0 0 -3 -4 -4 -2 -1 0 0
0 0 0 0 0 0 0 0 0 0 0 0 0 0 0 0 0 0 0 0 0 0 0 0 0 0 0 0 0 0 0 0 0 0 0 0 0 -2 -3 -2 -2 -2 0
0 0 0 0 0 0 0 0 0 0 0 0 0 0 0 0 0 0 0 0 0 0 0 0 0 0 0 0 0 0 0 0 0 0 0 0 0 0 0 -3 -3 -3 -1
0 0 0 0 0 0 0 0 0 0 0 0 0 0 0 0 0 0 0 0 0 0 0 0 0 0 0 0 0 0 0 0 0 0 0 0 0 0 0 0 0 -3 -2
0 0 0 0 0 0 0 0 0 0 0 0 0 0 0 0 0 0 0 0 0 0 0 0 0 0 0 0 0 0 0 0 0 0 0 0 0 0 0 0 0 0 -1
0 0 0 0 0 0 0 0 0 0 0 0 0 0 0 0 0 0 0 0 0 0 0 0 0 0 0 0 0 0 0 0 0 0 0 0 0 0 0 0 0 0 0
0 0 0 0 0 0 0 0 0 0 0 0 0 0 0 0 0 0 0 0 0 0 0 0 0 0 0 0 0 0 0 0 0 0 0 0 0 0 0 0 0 0 0
0 0 0 0 0 0 0 0 0 0 0 0 0 0 0 0 0 0 0 0 0 0 0 0 0 0 0 0 0 0 0 0 0 0 0 0 0 0 0 0 0 0 0
0 0 0 0 0 0 0 0 0 0 0 0 0 0 0 0 0 0 0 0 0 0 0 0 0 0 0 0 0 0 0 0 0 0 0 0 0 0 0 0 0 0 0
0 0 0 0 0 0 0 0 0 0 0 0 0 0 0 0 0 0 0 0 0 0 0 0 0 0 0 0 0 0 0 0 0 0 0 0 0 0 0 0 0 0 0
0 0 0 0 0 0 0 0 0 0 0 0 0 0 0 0 0 0 0 0 0 0 0 0 0 0 0 0 0 0 0 0 0 0 0 0 0 0 0 0 0 0 0
0 0 0 0 0 0 0 0 0 0 0 0 0 0 0 0 0 0 0 0 0 0 0 0 0 0 0 0 0 0 0 0 0 0 0 0 0 0 0 0 0 0 0
0 0 0 0 0 0 0 0 0 0 0 0 0 0 0 0 0 0 0 0 0 0 0 0 0 0 0 0 0 0 0 0 0 0 0 0 0 0 0 0 0 0 0
0 0 0 0 0 0 0 0 0 0 0 0 0 0 0 0 0 0 0 0 0 0 0 0 0 0 0 0 0 0 0 0 0 0 0 0 0 0 0 0 0 0 0
0 0 0 0 0 0 0 0 0 0 0 0 0 0 0 0 0 0 0 0 0 0 0 0 0 0 0 0 0 0 0 0 0 0 0 0 0 0 0 0 0 0 0
0 0 0 0 0 0 0 0 0 0 0 0 0 0 0 0 0 0 0 0 0 0 0 0 0 0 0 0 0 0 0 0 0 0 0 0 0 0 -5 0 0 0 0
0 0 0 0 0 0 0 0 0 0 0 0 0 0 0 0 0 0 0 0 0 0 0 0 0 0 0 0 0 0 0 0 0 0 0 0 0 0 0 0 0 0 0
0 0 0 0 0 0 0 0 0 0 0 0 0 0 0 0 0 0 0 0 0 0 0 0 0 0 0 0 0 0 0 0 0 0 0 0 0 0 0 0 0 0 0
0 0 0 0 0 0 0 0 0 0 0 0 0 0 0 0 0 0 0 0 0 0 0 0 0 0 0 0 0 0 0 0 0 -1 0 0 0 0 -1 -1 -1 0 0
0 0 0 0 0 0 0 0 0 0 0 0 0 0 0 0 0 0 0 0 0 0 0 0 0 0 0 0 0 0 0 0 0 0 0 0 0 0 0 0 -2 0 0
Wind_Speed
8 4 3 2 4 10 15 15 15 16 17 20 21 22 24 24 24 25 25 26 28 28 29 29 30 30 29 30 29 28 31 29 30 26 23 21 20 21 20 22 23 24 24
10 6 4 4 6 9 15 16 16 17 17 18 20 21 22 24 24 26 27 27 27 26 27 27 28 28 29 29 28 29 28 27 28 25 20 21 17 21 20 22 24 24 23
7 6 6 6 11 13 16 16 17 18 18 19 20 22 23 24 25 27 29 29 27 26 27 26 26 26 27 27 26 26 26 26 25 25 21 20 18 19 16 20 24 25 23
15 9 8 9 12 16 18 18 18 17 18 18 20 22 24 26 26 28 29 31 29 28 27 25 24 24 24 25 24 23 24 23 22 21 21 17 16 16 16 18 21 25 22
12 10 10 11 13 16 17 17 16 17 18 19 21 22 24 25 27 30 31 31 30 29 27 24 22 21 22 23 22 23 22 20 19 19 19 19 17 16 16 19 25 24 24
13 12 12 11 13 15 15 15 15 17 19 21 21 23 26 29 31 32 32 31 30 29 26 24 21 20 20 21 21 21 20 19 18 18 17 17 16 17 16 18 26 27 23
13 12 12 11 11 12 14 16 17 19 20 21 22 25 27 28 30 30 30 31 31 29 27 24 23 21 19 19 19 18 18 16 17 20 19 16 16 16 15 17 20 24 27
12 11 10 9 10 12 14 15 17 18 21 22 24 26 27 28 29 29 30 30 29 27 26 24 23 21 18 17 17 18 16 15 16 21 19 16 16 20 16 17 22 27 23
10 8 8 9 10 12 14 15 16 19 21 23 25 27 28 29 31 30 29 27 26 26 26 25 24 22 20 18 19 18 16 16 15 22 21 19 18 20 20 19 18 19 24
9 8 8 9 10 12 13 16 18 20 22 24 26 28 29 29 29 27 29 28 28 28 27 27 28 26 23 21 21 19 17 16 13 22 24 22 21 20 22 21 22 20 19
9 8 8 9 10 12 15 17 19 22 24 26 27 28 28 27 27 27 28 29 29 29 28 30 28 26 26 25 24 21 18 16 15 16 25 25 24 24 22 24 23 24 22
8 9 9 9 12 14 17 19 21 23 25 26 26 26 26 26 27 28 28 28 29 30 31 30 29 28 28 27 26 23 21 19 17 17 19 26 26 26 26 28 27 25 24
10 9 10 12 14 17 19 21 22 24 24 24 25 25 27 27 28 28 28 29 30 31 31 30 30 30 29 29 27 25 23 21 20 19 19 23 28 29 28 28 28 29 28
11 12 14 16 17 19 20 21 21 22 23 23 24 25 26 27 27 28 28 29 30 31 31 31 31 31 32 31 30 28 27 25 24 22 22 23 25 29 30 30 30 31 31
15 16 17 17 18 18 19 19 20 21 21 22 23 24 24 25 26 28 29 29 30 30 30 31 32 32 32 31 32 31 30 28 27 27 26 25 26 28 30 31 33 32 32
18 18 18 16 17 17 18 18 19 20 20 20 21 22 24 25 27 28 29 29 30 31 31 32 32 33 32 32 32 32 31 30 30 29 28 28 30 31 32 32 32 31 33
16 16 16 15 16 16 16 17 18 18 18 20 22 23 24 26 28 28 29 31 31 32 33 33 33 34 33 33 33 32 31 30 31 31 31 31 30 31 32 33 32 31 31
15 14 14 14 13 13 15 16 16 16 18 20 21 23 25 27 28 29 31 32 32 33 34 34 34 34 34 34 34 34 32 31 31 31 31 32 33 33 33 33 34 33 32
11 10 10 11 12 12 14 14 15 16 18 21 22 24 25 27 29 31 32 33 33 34 34 34 34 35 34 34 34 34 32 32 33 33 33 33 33 33 33 33 34 35 35
10 10 10 11 11 12 13 14 16 17 19 21 22 24 25 27 29 31 33 32 33 34 34 34 34 34 34 35 35 35 33 33 33 33 33 33 34 34 33 33 33 36 35
9 9 9 11 12 13 14 16 17 19 20 21 23 25 26 29 30 31 32 33 33 34 35 35 35 34 34 35 36 36 35 34 34 35 36 35 35 35 35 34 35 36 36
10 10 12 12 13 14 15 17 20 20 21 22 24 26 28 29 30 31 33 33 33 35 35 36 37 36 36 36 37 37 36 35 37 39 38 37 38 39 39 37 37 37 37
12 12 13 15 15 15 17 20 20 21 22 24 26 27 28 29 30 32 33 34 33 34 36 36 37 38 38 38 38 38 38 38 38 37 38 40 40 41 40 40 40 39 38
13 13 14 16 17 17 18 20 22 22 24 26 28 28 29 31 31 31 31 34 35 36 37 37 39 39 40 39 38 39 39 39 39 39 39 40 40 39 39 39 38 38 38
15 15 16 17 18 18 20 21 22 23 27 28 29 31 31 33 34 33 33 34 34 33 37 38 38 40 41 40 40 40 41 40 41 43 41 43 41 41 41 40 40 39 40
16 17 18 18 19 21 23 23 24 25 28 30 31 32 32 33 34 35 37 35 34 35 36 36 36 38 38 40 42 42 42 41 42 42 42 43 42 43 43 43 43 41 41
Wind_Direction
278 279 287 281 282 282 279 281 290 299 305 310 317 324 328 333 337 341 345 348 349 351 352 353 354 356 357 357 358 359 356 358 357 0 1 7 8 6 4 355 349 346 346
279 282 281 284 285 286 281 284 292 299 306 314 320 325 329 332 335 339 341 345 347 350 352 353 355 356 358 358 358 358 359 1 1 2 8 0 9 4 360 353 347 342 344
264 265 277 285 291 289 285 289 294 300 306 313 319 323 327 331 335 337 340 343 345 347 348 350 353 356 359 359 359 360 -0 358 4 8 12 6 8 11 15 354 344 333 337
274 271 278 289 293 291 291 292 296 302 308 314 318 322 325 328 333 335 338 338 340 341 343 346 350 355 358 358 359 2 358 359 5 7 9 24 23 21 15 3 355 332 336
274 270 281 290 294 296 297 297 300 305 310 315 320 323 325 328 332 333 334 335 337 339 341 345 347 351 353 356 358 356 355 2 6 7 7 7 10 11 11 357 321 332 316
275 282 291 297 298 300 301 304 308 310 313 316 321 324 324 325 327 330 331 335 338 340 344 347 347 345 347 350 352 354 356 0 2 -0 2 4 8 1 5 355 311 307 327
274 282 288 297 302 305 306 307 309 313 318 322 324 325 326 327 328 330 333 334 337 340 344 346 345 344 344 344 347 348 351 357 357 344 348 0 357 356 358 352 333 322 302
279 285 291 299 305 308 310 313 317 319 322 325 325 328 329 330 331 332 332 333 335 342 343 343 343 344 345 345 346 343 346 351 347 331 337 346 348 337 351 347 332 316 324
275 282 290 299 308 313 316 319 322 323 325 326 327 328 329 329 328 330 334 338 341 341 342 342 340 340 340 341 339 338 342 345 344 325 325 329 332 327 333 333 334 333 323
272 280 291 301 310 316 320 323 325 326 326 327 327 327 327 330 333 337 336 338 338 338 339 337 333 335 337 336 331 334 338 339 343 325 319 320 321 321 316 323 319 322 325
271 281 292 303 311 317 321 323 325 325 325 326 327 329 331 336 338 338 338 336 336 336 335 331 332 334 333 330 327 329 332 334 334 333 316 314 313 313 314 308 313 313 314
274 282 290 300 308 314 318 320 322 323 325 328 332 336 340 341 340 338 338 338 336 334 330 330 333 332 330 327 325 326 328 329 329 329 324 311 310 308 307 301 302 306 309
272 279 289 297 305 310 314 318 322 326 331 335 338 340 342 342 342 343 342 339 337 334 333 334 332 329 327 326 326 326 325 325 325 323 322 316 308 305 305 304 302 301 302
269 278 286 294 302 308 315 321 326 331 334 337 339 340 343 344 344 344 343 340 339 338 337 336 332 328 325 324 324 324 324 323 321 321 318 315 312 305 302 302 301 301 300
275 279 286 294 303 311 317 322 327 331 334 337 340 341 343 345 344 344 343 342 342 341 340 337 334 330 328 328 325 324 323 322 320 317 317 314 311 308 304 301 299 299 299
274 280 286 294 300 306 313 319 324 329 333 336 338 340 341 342 341 341 342 342 342 341 340 338 336 333 332 329 327 325 324 322 320 318 317 315 311 308 305 302 299 298 298
273 277 283 292 301 308 315 320 325 330 333 335 337 337 338 338 338 339 339 338 338 338 336 335 335 333 332 331 329 328 326 324 321 319 317 315 313 310 307 305 303 302 300
275 279 286 294 302 310 316 320 325 328 331 333 334 335 335 335 335 336 336 336 337 336 335 334 333 332 331 330 328 328 327 326 324 322 319 316 313 311 309 306 304 302 301
277 283 292 300 306 311 317 321 324 327 328 329 330 331 332 332 333 333 332 333 333 333 333 333 332 331 331 331 331 329 327 325 324 322 320 317 315 314 312 309 306 305 303
288 293 299 306 309 315 320 321 323 325 326 328 329 331 332 332 332 332 331 333 333 332 332 331 331 329 328 328 327 327 325 323 322 322 321 319 316 314 313 311 309 305 306
295 301 304 306 310 315 319 318 319 319 323 325 327 328 329 329 330 330 331 331 331 331 330 330 330 329 329 327 326 325 322 320 319 318 317 317 316 314 313 311 308 306 306
299 302 304 308 312 315 316 316 316 320 322 324 325 326 328 329 329 329 329 330 330 329 329 328 327 326 326 325 323 322 321 319 315 313 313 312 311 309 308 308 308 307 306
297 304 304 307 311 312 314 314 317 320 321 322 323 325 326 328 328 328 328 329 329 327 327 327 326 324 322 321 321 319 319 318 316 315 314 312 311 308 306 305 304 304 305
293 299 303 305 307 311 313 315 319 321 321 320 322 324 325 325 326 327 327 326 325 324 324 323 322 321 319 319 320 318 318 317 316 315 314 313 312 311 309 307 306 305 304
295 299 301 304 306 311 313 317 319 321 318 320 321 321 322 322 322 324 323 323 322 321 321 319 319 318 316 317 317 317 315 316 314 312 312 310 309 308 307 307 306 304 303
296 299 302 305 308 311 313 318 321 322 319 319 320 321 322 322 322 321 320 320 319 318 319 319 318 318 317 316 315 314 313 313 313 311 310 309 308 306 306 305 304 304 302